Regional Weather Roundup
Issued by NWS Sioux Falls, SD

Home | Current Version | Previous Version | Graphics & Text | Print | Product List | Glossary Off
Versions: 1 2 3 4 5 6 7 8 9 10 11 12 13 14 15 16 17 18 19 20 21 22 23 24 25 26 27 28 29 30 31 32 33 34 35 36 37 38 39 40 41 42 43 44 45 46 47 48 49 50

000
ASUS43 KFSD 061402
RWRFSD

WEATHER ROUNDUP FOR SE SOUTH DAKOTA/SW MINNESOTA/NW IOWA
NATIONAL WEATHER SERVICE SIOUX FALLS SD
800 AM CST FRI MAR 06 2015

NOTE: "FAIR" INDICATES FEW OR NO CLOUDS BELOW 12,000 FEET WITH NO
SIGNIFICANT WEATHER AND OR OBSTRUCTIONS TO VISIBILITY.


SDZ038>040-050-052>070-061500-
SOUTHEAST SOUTH DAKOTA

CITY           SKY/WX    TMP DP  RH WIND       PRES   REMARKS
CHAMBERLAIN    NOT AVBL
HURON          PTCLDY    20  14  77 NE6       30.10R WCI  12
MADISON        FAIR      21  14  73 W7        30.05F WCI  13
MITCHELL       CLOUDY    33  20  58 W12       30.09F WCI  24
SIOUX FALLS    MOSUNNY   23  14  68 W6        30.09S WCI  16
WINNER         FAIR      33  18  53 W10       30.12R WCI  25
YANKTON        SUNNY     25  18  74 CALM      30.14S
$$

MNZ071-072-080-081-089-090-097-098-061500-
SOUTHWEST MINNESOTA

CITY           SKY/WX    TMP DP  RH WIND       PRES   REMARKS
FAIRMONT       SUNNY     18   9  68 S7        30.07F WCI   8
JACKSON        SUNNY     21  10  63 SW14      30.08R WCI   8
LUVERNE        SUNNY     14  10  85 CALM      30.11S
MARSHALL       SUNNY     27  12  54 W14       30.06R WCI  15
MONTEVIDEO     SUNNY     21  16  79 W5        30.06S WCI  15
PIPESTONE      SUNNY     14   9  79 SW3       30.07S
REDWOOD FALLS  SUNNY     20  11  68 W6        30.06R WCI  12
TRACY          SUNNY     23  13  65 SW12G20   30.05S WCI  12
WINDOM         SUNNY     21  12  68 SW9       30.07S WCI  11
WORTHINGTON    MOSUNNY   19   9  63 SW16      30.09S WCI   5
$$

IAZ001>003-012>014-020>022-031-032-NEZ013-014-SDZ071-061500-
NORTHWEST IOWA

CITY           SKY/WX    TMP DP  RH WIND       PRES   REMARKS
DENISON        SUNNY     21  14  73 SW5       30.15R WCI  15
ESTHERVILLE    SUNNY     19  11  70 SW15      30.09S WCI   5
SIOUX CITY     FAIR      19  11  70 E5        30.15S WCI  12
SPENCER        SUNNY     19  11  70 W6        30.11S WCI  11
$$

ABBREVIATIONS USED IN REMARKS
   TC - TEMPERATURE IN CELSIUS
  WCI - WIND CHILL INDEX
   HX - HEAT INDEX
  VSB - VISIBILITY



USA.gov is the U.S. government's official web portal to all federal, state and local government web resources and services.